Location: Red Deer
(52.2681°N, 113.8112°W)
Time: 16:14:45
(UTC-07:00)

Cosmos 1455 Rocket - Pass Details

Date: 02 October 2022
Orbit: 603 x 629 km, 82.5° (Epoch: 02 December)

Event Time Altitude Azimuth Distance (km) Brightness Sun altitude
Exits shadow 00:17:29 11° 360° (N) 1,980 6.2 -39.4°
Drops below altitude 10° 00:17:35 10° 0° (N) 2,018 6.3 -39.4°
Sets 00:19:55 0° 7° (N) 2,928 7.2 -39.5°
